STARLINK-35914 (66532 NORAD) Tracking and Keplerian Element Data

This shows tracking and keplerian element data for the satellite.

Feedback or suggestion? Click here.




ElementValue
Catalog66532
NameSTARLINK-35914
Epoch Orbit479
Epoch Day353.44413073
Epoch Year2025
RAAN15.2148
Inclination42.9973
Eccentricity4.08E-05
Argument of Perigee253.6549
Mean Anonmoly106.4263
Mean Motion15.40720156
Decay Rate-0.00045227
L11 66532U 25265S 25353.44413073 -.00045227 00000+0 -10812-2 0 9991
L22 66532 42.9973 15.2148 0000408 253.6549 106.4263 15.40720156 4798



Live tracking and technical data element details for STARLINK-35914 (NORAD 66532). STARLINK-35914 can be tracked NOW for your location showing map with azimuth and elevation plus other details from your city location.







IsCatalogInMostPopularTable: catalog: 66532, numindb: 12
Update: records affected: 1



GetName: 66532 STARLINK-35914

Hit Count: updated at: Mon, 20 Apr 2026 09:21:11 GMT